THOR BURNER 2 R/B, 2877

Orbit data source: Space-Track

THOR BURNER 2 R/B, 2877 is space debris in LEO originally from a launch on Thu, 29 Jun 1967 UTC launched from the Air Force Western Test Range (AFWTR). Debris objects in space refer to the collection of defunct objects orbiting the Earth. Examples of debris include non-operational satellites, rocket bodies, and fragments generated from explosions, collisions, or faulty payload assembly.

Loading next visibility...
THOR BURNER 2 R/B details
Identifier
2877, 1967-065C
Orbit
LEO
Last TLE update15 hours ago
Origin
Flag of USUSAF SSD (US)
ManufacturerBOKT/THKE
MissionSpacecraft
Bus & MotorSTAR 13, STAR 13
Mass58 kg wet, 25 kg dry
Launch date (UTC)
1967-06-29 (58 years ago)
Launch vehicleUnknown
Launch site
Air Force Western Test Range (AFWTR)
Object type
Payload
Rocket body
Debris
Shape & HBRSphere + 1 Nozzle, 0.7 m
Radar Cross Section0.385 m², Medium (>0.1 m² and < 1m²)

Expand to show TLE details & history

TLE from 15 hours ago
0 THOR BURNER 2 R/B
1 02877U 67065C   25044.17559727  .00000001  00000-0 -50915-3 0  9991
2 02877  90.0186 313.7625 0066816 199.7047 160.1203  8.36608486760084
Epoch: 2025-02-13T04:12Z
Definitive object data (Epoch: 2025-02-13T04:12:51.604Z)
Latitude-0.00004°
Longitude107.092°
Altitude3,938.391 km
Speed6.197 km/s
True Right ascension20h 55m 03s
True Declination0° 00' 00"
Sunlit
Object was in daylight at TLE epoch
Visualization TLE readout
Latitude68.61245°
Longitude-72.8603°
Altitude3,880.386 km
Speed6.24 km/s
Apparent Right ascension09h 33m 51s
Apparent Declination32° 32' 49"
Sunlit
Object is in daylight
Visualization observer readout
Local Sidereal Time22:03:21
Azimuth6.502° NNE
Elevation-17.216°
Doppler factor1
Orbital elements
Apogee altitude3,938.109 km
Perigee altitude3,801.166 km
Semi-major axis10,247.775 km
Eccentricity0.0066816
Inclination90.0186°
RAAN313.7625°
Arg. of periapsis199.7047°
True anomaly160.37863°
Mean anomaly160.1203°
Eccentric anomaly160.24967°
Mean motion2.09218 °/min
BSTAR-0.00050915
Orbital period172.07 mins
Loading maneuver chart data...
Loading historical data...
Loading historical data...
Loading historical data...
Loading historical data...
Loading historical data...
Loading historical data...
Loading historical data...

THOR BURNER 2 R/B Visibility forecast

Observer location: undefined°, undefined

Span
Click to sort rows by Start time (UTC) header in descending order
Start Az.
Max El. time (UTC)
Max El. Az.
Max El.
End time (UTC)
End Az.
20 mins2025-02-13 21:40:29.791Z272.711° WNW2025-02-13 21:50:29.791Z304.744° NW14.982°2025-02-13 22:00:29.791Z336.864° NNW
33 mins2025-02-14 04:00:29.791Z12.568° NNE2025-02-14 04:16:29.791Z73.834° E31.288°2025-02-14 04:33:29.791Z138.072° SSE
36 mins2025-02-14 06:51:29.791Z357.288° N2025-02-14 07:09:29.791Z278.503° WNW42.034°2025-02-14 07:27:29.791Z207.64° SW
14 mins2025-02-14 09:46:29.791Z338.804° N2025-02-14 09:53:29.791Z316.175° NNW13.897°2025-02-14 10:00:29.791Z293.441° NW
22 mins2025-02-14 14:54:29.791Z84.731° E2025-02-14 15:05:29.791Z48.471° ENE18.616°2025-02-14 15:16:29.791Z13.096° NNE
38 mins2025-02-14 17:32:29.791Z162.509° S2025-02-14 17:50:29.791Z87.615° E44.319°2025-02-14 18:10:29.791Z0.254° NNE
|